Location: LewisvilleTX
(33.0462°N, 96.9942°W)
Time: 02:15:53
(UTC+00:00)

ISS - Visible Passes

Search period start: 07 October 2022 00:00
Search period end: 17 October 2022 00:00
Orbit: 415 x 419 km, 51.6° (Epoch: 06 October)

Date Brightness Start Highest point End Pass type
(mag) Time Alt. Az. Time Alt. Az. Time Alt. Az.
07 Oct -1.7 01:33:29 10° WNW 01:36:18 25° SW 01:38:08 16° S visible
08 Oct -2.9 00:44:55 10° WNW 00:48:11 50° SW 00:51:26 10° SSE visible
10 Oct -0.7 00:46:05 10° W 00:47:59 14° SW 00:49:52 10° SSW visible
